TimeEST,TemperatureF,Dew PointF,Humidity,Sea Level PressureIn,VisibilityMPH,Wind Direction,Wind SpeedMPH,Gust SpeedMPH,PrecipitationIn,Events,Conditions,WindDirDegrees,DateUTC
12:08 AM,48.2,46.4,93,29.69,3.0,NE,4.6,-,0.02,Rain,Light Rain,40,2012-12-26 05:08:00
12:33 AM,48.2,48.2,100,29.64,3.0,NE,10.4,-,0.04,Rain,Rain,40,2012-12-26 05:33:00
12:48 AM,48.2,48.2,100,29.65,4.0,NNE,5.8,-,0.08,Rain,Light Rain,20,2012-12-26 05:48:00
12:53 AM,48.9,48.0,97,29.65,4.0,NNE,6.9,-,0.08,Rain,Light Rain,30,2012-12-26 05:53:00
1:09 AM,48.2,48.2,100,29.63,4.0,North,9.2,-,0.03,Rain,Heavy Rain,10,2012-12-26 06:09:00
1:42 AM,48.2,48.2,100,29.56,4.0,ENE,5.8,-,0.07,Rain,Light Rain,70,2012-12-26 06:42:00
1:53 AM,48.9,48.9,100,29.54,3.0,NE,8.1,-,0.11,Rain,Heavy Rain,50,2012-12-26 06:53:00
2:18 AM,48.2,48.2,100,29.55,4.0,West,5.8,-,0.02,Rain,Light Rain,260,2012-12-26 07:18:00
2:53 AM,48.9,48.9,100,29.50,7.0,NNW,3.5,-,0.03,,Overcast,340,2012-12-26 07:53:00
3:35 AM,48.2,48.2,100,29.49,7.0,West,3.5,-,N/A,,Overcast,280,2012-12-26 08:35:00
3:53 AM,51.1,50.0,96,29.46,7.0,SE,9.2,24.2,N/A,,Overcast,140,2012-12-26 08:53:00
4:14 AM,53.6,51.8,94,29.46,10.0,South,8.1,-,N/A,,Overcast,170,2012-12-26 09:14:00
4:53 AM,54.0,51.1,90,29.43,10.0,Variable,6.9,16.1,N/A,,Overcast,0,2012-12-26 09:53:00
5:53 AM,53.1,52.0,96,29.43,10.0,SSW,3.5,-,N/A,,Overcast,200,2012-12-26 10:53:00
6:31 AM,53.6,48.2,82,29.45,10.0,SSW,18.4,29.9,N/A,,Overcast,210,2012-12-26 11:31:00
6:53 AM,51.8,46.4,82,29.46,10.0,SSW,13.8,-,N/A,,Mostly Cloudy,210,2012-12-26 11:53:00
7:48 AM,50.0,44.6,82,29.48,10.0,SW,13.8,26.5,N/A,,Mostly Cloudy,220,2012-12-26 12:48:00
7:53 AM,50.0,44.1,80,29.49,10.0,SW,18.4,26.5,N/A,,Mostly Cloudy,220,2012-12-26 12:53:00
8:49 AM,44.6,39.2,81,29.53,10.0,SW,18.4,28.8,0.00,,Mostly Cloudy,220,2012-12-26 13:49:00
8:53 AM,45.0,39.9,82,29.54,10.0,SW,16.1,26.5,0.00,,Mostly Cloudy,230,2012-12-26 13:53:00
9:23 AM,44.6,39.2,81,29.55,10.0,SW,17.3,20.7,N/A,,Mostly Cloudy,220,2012-12-26 14:23:00
9:53 AM,43.0,37.0,80,29.59,10.0,SSW,20.7,-,N/A,,Overcast,210,2012-12-26 14:53:00
10:22 AM,42.8,35.6,76,29.61,10.0,WSW,13.8,24.2,N/A,,Overcast,240,2012-12-26 15:22:00
10:53 AM,43.0,36.0,76,29.63,10.0,SSW,17.3,24.2,N/A,,Mostly Cloudy,210,2012-12-26 15:53:00
11:53 AM,42.1,36.0,79,29.65,10.0,SSW,13.8,21.9,N/A,,Overcast,210,2012-12-26 16:53:00
12:53 PM,41.0,35.1,79,29.65,10.0,SW,16.1,24.2,N/A,,Overcast,230,2012-12-26 17:53:00
1:53 PM,39.9,34.0,79,29.69,10.0,WSW,12.7,21.9,0.00,,Light Drizzle,240,2012-12-26 18:53:00
2:53 PM,39.0,32.0,76,29.73,9.0,West,11.5,18.4,0.00,,Overcast,260,2012-12-26 19:53:00
3:53 PM,37.9,30.0,73,29.78,8.0,WNW,5.8,23.0,0.00,,Mostly Cloudy,290,2012-12-26 20:53:00
4:53 PM,37.0,28.9,73,29.83,10.0,WNW,19.6,28.8,N/A,,Mostly Cloudy,290,2012-12-26 21:53:00
5:53 PM,36.0,28.9,76,29.86,10.0,West,16.1,21.9,0.00,,Overcast,280,2012-12-26 22:53:00
6:53 PM,36.0,28.9,76,29.93,7.0,West,13.8,19.6,N/A,,Overcast,280,2012-12-26 23:53:00
7:53 PM,35.1,30.0,82,29.96,7.0,West,13.8,24.2,N/A,,Overcast,280,2012-12-27 00:53:00
8:53 PM,35.1,30.0,82,29.98,7.0,Variable,5.8,-,N/A,,Overcast,0,2012-12-27 01:53:00
9:53 PM,35.1,28.9,78,30.01,7.0,WNW,8.1,-,N/A,,Overcast,290,2012-12-27 02:53:00
10:53 PM,35.1,30.0,82,30.03,7.0,WNW,6.9,-,N/A,,Overcast,300,2012-12-27 03:53:00
11:53 PM,35.1,28.9,78,30.05,10.0,NW,10.4,-,N/A,,Overcast,310,2012-12-27 04:53:00